Time,TemperatureF,DewpointF,PressureIn,WindDirection,WindDirectionDegrees,WindSpeedMPH,WindSpeedGustMPH,Humidity,HourlyPrecipIn,Conditions,Clouds,dailyrainin,SolarRadiationWatts/m^2,SoftwareType,DateUTC
2013-05-31 00:01:00,63.6,62.4,29.74,SSE,163,4.0,4.0,96,0.00,RA,,0.00,0.0,WeatherDisplay:10.37,2013-05-31 05:01:00,
2013-05-31 00:06:00,63.6,62.4,29.76,SSE,150,10.4,10.4,96,0.00,RA,,0.00,0.0,WeatherDisplay:10.37,2013-05-31 05:06:00,
2013-05-31 00:11:00,63.6,62.4,29.75,SSE,150,10.4,10.4,96,0.00,CLR,,0.00,0.0,WeatherDisplay:10.37,2013-05-31 05:11:00,
2013-05-31 00:16:00,63.7,62.5,29.76,SSE,165,10.4,10.4,96,0.00,CLR,,0.00,0.0,WeatherDisplay:10.37,2013-05-31 05:16:00,
2013-05-31 00:21:00,63.8,62.6,29.75,South,188,0.0,0.0,96,0.00,CLR,,0.00,0.0,WeatherDisplay:10.37,2013-05-31 05:21:00,
2013-05-31 00:26:00,63.8,62.6,29.75,SSE,165,4.0,4.0,96,0.00,CLR,,0.00,0.0,WeatherDisplay:10.37,2013-05-31 05:26:00,
2013-05-31 00:31:00,63.8,62.6,29.75,SSE,152,11.5,11.5,96,0.00,CLR,,0.00,0.0,WeatherDisplay:10.37,2013-05-31 05:31:00,
2013-05-31 00:36:00,63.8,62.6,29.75,SE,142,2.0,2.0,96,0.00,CLR,,0.00,0.0,WeatherDisplay:10.37,2013-05-31 05:36:00,
2013-05-31 00:41:00,63.8,62.6,29.74,SE,136,0.0,0.6,96,0.00,CLR,,0.00,0.0,WeatherDisplay:10.37,2013-05-31 05:41:00,
2013-05-31 00:46:00,63.9,62.7,29.74,South,179,0.0,0.0,96,0.00,CLR,,0.00,0.0,WeatherDisplay:10.37,2013-05-31 05:46:00,
2013-05-31 00:51:00,63.9,62.7,29.76,South,187,6.9,6.9,96,0.00,CLR,,0.00,0.0,WeatherDisplay:10.37,2013-05-31 05:51:00,
2013-05-31 00:56:00,63.9,62.7,29.76,South,181,0.0,0.0,96,0.00,CLR,,0.00,0.0,WeatherDisplay:10.37,2013-05-31 05:56:00,
2013-05-31 01:01:00,63.9,62.7,29.75,South,173,8.1,8.1,96,0.00,CLR,,0.00,0.0,WeatherDisplay:10.37,2013-05-31 06:01:00,
2013-05-31 01:06:00,63.9,62.7,29.75,South,175,0.0,0.0,96,0.00,CLR,,0.00,0.0,WeatherDisplay:10.37,2013-05-31 06:06:00,
2013-05-31 01:11:00,63.9,62.7,29.75,South,175,0.0,0.0,96,0.00,CLR,,0.00,0.0,WeatherDisplay:10.37,2013-05-31 06:11:00,
2013-05-31 01:16:00,64.0,62.8,29.75,SSE,167,5.8,5.8,96,0.00,CLR,,0.00,0.0,WeatherDisplay:10.37,2013-05-31 06:16:00,
2013-05-31 01:21:00,64.0,62.8,29.75,SSE,166,9.2,9.2,96,0.00,CLR,,0.00,0.0,WeatherDisplay:10.37,2013-05-31 06:21:00,
2013-05-31 01:26:00,64.0,62.8,29.75,South,182,5.8,5.8,96,0.00,CLR,,0.00,0.0,WeatherDisplay:10.37,2013-05-31 06:26:00,
2013-05-31 01:32:00,64.0,62.8,29.76,South,183,9.2,9.2,96,0.00,CLR,,0.00,0.0,WeatherDisplay:10.37,2013-05-31 06:32:00,
2013-05-31 01:37:00,64.1,62.9,29.76,SSE,163,5.0,5.0,96,0.00,CLR,,0.00,0.0,WeatherDisplay:10.37,2013-05-31 06:37:00,
2013-05-31 01:42:00,64.1,62.9,29.76,South,189,0.0,0.1,96,0.00,CLR,,0.00,0.0,WeatherDisplay:10.37,2013-05-31 06:42:00,
2013-05-31 01:47:00,64.1,62.9,29.76,South,186,10.4,0.0,96,0.00,CLR,,0.00,0.0,WeatherDisplay:10.37,2013-05-31 06:47:00,
2013-05-31 01:52:00,64.2,63.0,29.76,SSW,197,9.2,9.2,96,0.00,CLR,,0.00,0.0,WeatherDisplay:10.37,2013-05-31 06:52:00,
2013-05-31 01:57:00,64.2,63.0,29.76,South,188,4.6,4.6,96,0.00,CLR,,0.00,0.0,WeatherDisplay:10.37,2013-05-31 06:57:00,
2013-05-31 02:02:00,64.2,62.7,29.75,South,169,3.5,3.5,95,0.00,CLR,,0.00,0.0,WeatherDisplay:10.37,2013-05-31 07:02:00,
2013-05-31 02:07:00,64.2,62.7,29.76,SSW,197,1.2,0.0,95,0.00,CLR,,0.00,0.0,WeatherDisplay:10.37,2013-05-31 07:07:00,
2013-05-31 02:12:00,64.1,62.6,29.76,South,182,4.6,4.6,95,0.00,CLR,,0.00,0.0,WeatherDisplay:10.37,2013-05-31 07:12:00,
2013-05-31 02:17:00,64.1,62.6,29.76,South,187,3.5,3.5,95,0.00,CLR,,0.00,0.0,WeatherDisplay:10.37,2013-05-31 07:17:00,
2013-05-31 02:22:00,64.0,62.5,29.76,South,183,0.0,0.0,95,0.00,CLR,,0.00,0.0,WeatherDisplay:10.37,2013-05-31 07:22:00,
2013-05-31 02:27:00,64.0,62.5,29.75,South,182,10.4,10.4,95,0.00,CLR,,0.00,0.0,WeatherDisplay:10.37,2013-05-31 07:27:00,
2013-05-31 02:32:00,63.9,62.4,29.75,South,173,0.0,0.0,95,0.00,CLR,,0.00,0.0,WeatherDisplay:10.37,2013-05-31 07:32:00,
2013-05-31 02:37:00,63.9,62.4,29.75,South,184,3.5,3.5,95,0.00,CLR,,0.00,0.0,WeatherDisplay:10.37,2013-05-31 07:37:00,
2013-05-31 02:42:00,63.8,62.3,29.75,SSE,168,3.5,3.5,95,0.00,CLR,,0.00,0.0,WeatherDisplay:10.37,2013-05-31 07:42:00,
2013-05-31 02:47:00,63.7,62.2,29.75,SSE,161,3.5,3.5,95,0.00,CLR,,0.00,0.0,WeatherDisplay:10.37,2013-05-31 07:47:00,
2013-05-31 02:52:00,63.7,62.2,29.74,SSE,162,5.0,5.0,95,0.00,CLR,,0.00,0.0,WeatherDisplay:10.37,2013-05-31 07:52:00,
2013-05-31 02:57:00,63.6,62.1,29.74,South,183,0.0,0.0,95,0.00,CLR,,0.00,0.0,WeatherDisplay:10.37,2013-05-31 07:57:00,
2013-05-31 03:02:00,63.6,62.1,29.74,SSE,165,0.0,0.0,95,0.00,CLR,,0.00,0.0,WeatherDisplay:10.37,2013-05-31 08:02:00,
2013-05-31 03:07:00,63.6,62.1,29.74,SSE,168,3.5,0.0,95,0.00,CLR,,0.00,0.0,WeatherDisplay:10.37,2013-05-31 08:07:00,
2013-05-31 03:12:00,63.6,62.1,29.73,South,172,0.0,0.0,95,0.00,CLR,,0.00,0.0,WeatherDisplay:10.37,2013-05-31 08:12:00,
2013-05-31 03:17:00,63.5,62.0,29.74,SSW,195,9.2,9.2,95,0.00,CLR,,0.00,0.0,WeatherDisplay:10.37,2013-05-31 08:17:00,
2013-05-31 03:22:00,63.6,62.1,29.75,South,186,6.9,6.9,95,0.00,CLR,,0.00,0.0,WeatherDisplay:10.37,2013-05-31 08:22:00,
2013-05-31 03:27:00,63.6,62.4,29.76,South,182,6.9,6.9,96,0.00,CLR,,0.00,0.0,WeatherDisplay:10.37,2013-05-31 08:27:00,
2013-05-31 03:32:00,63.6,62.4,29.75,South,177,0.0,1.9,96,0.00,CLR,,0.00,0.0,WeatherDisplay:10.37,2013-05-31 08:32:00,
2013-05-31 03:37:00,63.8,62.6,29.75,SSW,196,6.9,6.9,96,0.00,CLR,,0.00,0.0,WeatherDisplay:10.37,2013-05-31 08:37:00,
2013-05-31 03:42:00,63.9,62.7,29.75,SSE,168,8.1,8.1,96,0.00,CLR,,0.00,0.0,WeatherDisplay:10.37,2013-05-31 08:42:00,
2013-05-31 03:47:00,63.9,62.7,29.75,South,182,0.0,0.0,96,0.00,CLR,,0.00,0.0,WeatherDisplay:10.37,2013-05-31 08:47:00,
2013-05-31 03:52:00,63.9,62.7,29.75,South,176,0.0,0.0,96,0.00,CLR,,0.00,0.0,WeatherDisplay:10.37,2013-05-31 08:52:00,
2013-05-31 03:57:00,63.9,62.7,29.75,South,183,0.0,0.0,96,0.00,CLR,,0.00,0.0,WeatherDisplay:10.37,2013-05-31 08:57:00,
2013-05-31 04:02:00,63.9,62.7,29.75,South,175,0.0,0.0,96,0.00,CLR,,0.00,0.0,WeatherDisplay:10.37,2013-05-31 09:02:00,
2013-05-31 04:07:00,63.9,62.7,29.75,South,179,0.0,0.0,96,0.00,CLR,,0.00,0.0,WeatherDisplay:10.37,2013-05-31 09:07:00,
2013-05-31 04:12:00,63.9,62.7,29.76,SSW,193,5.8,5.8,96,0.00,CLR,,0.00,0.0,WeatherDisplay:10.37,2013-05-31 09:12:00,
2013-05-31 04:17:00,63.9,62.7,29.76,SSW,193,0.0,0.0,96,0.00,CLR,,0.00,0.0,WeatherDisplay:10.37,2013-05-31 09:17:00,
2013-05-31 04:22:00,63.9,62.7,29.76,SSE,167,6.9,6.9,96,0.00,CLR,,0.00,0.0,WeatherDisplay:10.37,2013-05-31 09:22:00,
2013-05-31 04:27:00,63.9,62.7,29.76,SSW,192,4.6,4.6,96,0.00,CLR,,0.00,0.0,WeatherDisplay:10.37,2013-05-31 09:27:00,
2013-05-31 04:32:00,63.9,62.4,29.76,South,185,2.3,0.0,95,0.00,CLR,,0.00,0.0,WeatherDisplay:10.37,2013-05-31 09:32:00,
2013-05-31 04:37:00,63.8,62.6,29.75,South,187,4.6,4.6,96,0.00,CLR,,0.00,0.0,WeatherDisplay:10.37,2013-05-31 09:37:00,
2013-05-31 04:42:00,63.8,62.3,29.76,SSW,194,9.2,9.2,95,0.00,CLR,,0.00,0.0,WeatherDisplay:10.37,2013-05-31 09:42:00,
2013-05-31 04:47:00,63.7,62.2,29.75,South,190,0.0,0.0,95,0.00,CLR,,0.00,0.0,WeatherDisplay:10.37,2013-05-31 09:47:00,
2013-05-31 04:52:00,63.6,62.1,29.76,South,190,0.0,0.0,95,0.00,CLR,,0.00,0.0,WeatherDisplay:10.37,2013-05-31 09:52:00,
2013-05-31 04:57:00,63.6,62.1,29.76,South,190,0.0,0.0,95,0.00,CLR,,0.00,0.0,WeatherDisplay:10.37,2013-05-31 09:57:00,
2013-05-31 05:02:00,63.5,62.0,29.77,South,191,0.0,0.0,95,0.00,CLR,,0.00,0.0,WeatherDisplay:10.37,2013-05-31 10:02:00,
2013-05-31 05:07:00,63.4,61.9,29.77,South,190,0.0,0.0,95,0.00,CLR,,0.00,0.0,WeatherDisplay:10.37,2013-05-31 10:07:00,
2013-05-31 05:12:00,63.3,61.8,29.77,South,191,0.0,0.0,95,0.00,CLR,,0.00,0.0,WeatherDisplay:10.37,2013-05-31 10:12:00,
2013-05-31 05:17:00,63.1,61.6,29.77,South,191,0.0,0.0,95,0.00,CLR,,0.00,0.0,WeatherDisplay:10.37,2013-05-31 10:17:00,
2013-05-31 05:22:00,63.1,61.6,29.77,South,191,0.0,0.0,95,0.00,CLR,,0.00,0.0,WeatherDisplay:10.37,2013-05-31 10:22:00,
2013-05-31 05:27:00,62.9,61.4,29.76,South,191,0.0,0.0,95,0.00,CLR,,0.00,0.0,WeatherDisplay:10.37,2013-05-31 10:27:00,
2013-05-31 05:32:00,62.8,61.3,29.77,South,191,0.0,0.0,95,0.00,OVC,,0.00,0.0,WeatherDisplay:10.37,2013-05-31 10:32:00,
2013-05-31 05:37:00,62.6,61.1,29.76,South,191,0.0,0.0,95,0.00,BKN,,0.00,5.0,WeatherDisplay:10.37,2013-05-31 10:37:00,
2013-05-31 05:42:00,62.6,61.1,29.75,South,191,0.0,0.0,95,0.00,BKN,,0.00,9.0,WeatherDisplay:10.37,2013-05-31 10:42:00,
2013-05-31 05:47:00,62.5,61.0,29.75,South,191,0.0,0.0,95,0.00,BKN,,0.00,12.0,WeatherDisplay:10.37,2013-05-31 10:47:00,
2013-05-31 05:52:00,62.4,60.9,29.75,South,191,0.0,0.0,95,0.00,BKN,,0.00,21.0,WeatherDisplay:10.37,2013-05-31 10:52:00,
2013-05-31 05:58:00,62.3,60.8,29.75,South,191,0.0,0.0,95,0.00,BKN,,0.00,23.0,WeatherDisplay:10.37,2013-05-31 10:58:00,
2013-05-31 06:02:00,62.3,60.8,29.75,South,191,0.0,0.0,95,0.00,BKN,,0.00,35.0,WeatherDisplay:10.37,2013-05-31 11:02:00,
2013-05-31 06:08:00,62.3,61.1,29.76,South,191,0.0,0.0,96,0.00,BKN,,0.00,42.0,WeatherDisplay:10.37,2013-05-31 11:08:00,
2013-05-31 06:13:00,62.3,61.1,29.76,South,191,0.0,0.0,96,0.00,BKN,,0.00,60.0,WeatherDisplay:10.37,2013-05-31 11:13:00,
2013-05-31 06:18:00,62.5,61.3,29.75,South,191,0.0,0.0,96,0.00,BKN,,0.00,111.0,WeatherDisplay:10.37,2013-05-31 11:18:00,
2013-05-31 06:23:00,62.7,61.5,29.75,South,186,0.0,0.0,96,0.00,FEW,,0.00,135.0,WeatherDisplay:10.37,2013-05-31 11:23:00,
2013-05-31 06:28:00,62.9,61.7,29.75,South,186,0.0,0.0,96,0.00,SCT,,0.00,144.0,WeatherDisplay:10.37,2013-05-31 11:28:00,
2013-05-31 06:33:00,63.2,62.3,29.75,SSE,162,0.0,0.0,97,0.00,SCT,,0.00,65.0,WeatherDisplay:10.37,2013-05-31 11:33:00,
2013-05-31 06:38:00,63.4,62.2,29.74,ESE,115,4.6,4.6,96,0.00,BKN,,0.00,144.0,WeatherDisplay:10.37,2013-05-31 11:38:00,
2013-05-31 06:43:00,63.6,62.4,29.74,SSE,160,5.8,5.8,96,0.00,BKN,,0.00,63.0,WeatherDisplay:10.37,2013-05-31 11:43:00,
2013-05-31 06:48:00,63.7,62.5,29.74,SSE,151,11.5,11.5,96,0.00,BKN,,0.00,62.0,WeatherDisplay:10.37,2013-05-31 11:48:00,
2013-05-31 06:53:00,63.9,63.0,29.75,South,177,4.6,4.6,97,0.00,BKN,,0.00,65.0,WeatherDisplay:10.37,2013-05-31 11:53:00,
2013-05-31 06:58:00,64.0,63.1,29.75,South,171,2.3,2.3,97,0.00,BKN,,0.00,77.0,WeatherDisplay:10.37,2013-05-31 11:58:00,
2013-05-31 07:03:00,64.1,62.9,29.75,South,174,6.9,6.9,96,0.00,BKN,,0.00,70.0,WeatherDisplay:10.37,2013-05-31 12:03:00,
2013-05-31 07:08:00,64.3,63.1,29.76,South,182,0.0,0.0,96,0.00,BKN,,0.00,125.0,WeatherDisplay:10.37,2013-05-31 12:08:00,
2013-05-31 07:13:00,64.4,63.5,29.75,South,179,0.0,0.0,97,0.00,BKN,,0.00,107.0,WeatherDisplay:10.37,2013-05-31 12:13:00,
2013-05-31 07:18:00,64.6,63.7,29.75,South,190,8.1,8.1,97,0.00,BKN,,0.00,167.0,WeatherDisplay:10.37,2013-05-31 12:18:00,
2013-05-31 07:23:00,64.9,64.0,29.76,South,184,0.0,0.0,97,0.00,BKN,,0.00,139.0,WeatherDisplay:10.37,2013-05-31 12:23:00,
2013-05-31 07:28:00,65.0,64.1,29.75,South,183,9.2,9.2,97,0.00,BKN,,0.00,95.0,WeatherDisplay:10.37,2013-05-31 12:28:00,
2013-05-31 07:33:00,65.2,64.3,29.76,SSE,150,6.9,6.9,97,0.00,BKN,,0.00,49.0,WeatherDisplay:10.37,2013-05-31 12:33:00,
2013-05-31 07:38:00,65.2,64.3,29.77,SSW,199,11.5,11.5,97,0.00,BKN,,0.00,40.0,WeatherDisplay:10.37,2013-05-31 12:38:00,
2013-05-31 07:43:00,65.4,64.2,29.77,SSW,210,11.5,11.5,96,0.00,BKN,,0.00,47.0,WeatherDisplay:10.37,2013-05-31 12:43:00,
2013-05-31 07:48:00,65.5,64.3,29.77,SSE,160,13.8,13.8,96,0.00,BKN,,0.00,54.0,WeatherDisplay:10.37,2013-05-31 12:48:00,
2013-05-31 07:53:00,65.6,64.4,29.78,South,184,10.4,10.4,96,0.00,BKN,,0.00,39.0,WeatherDisplay:10.37,2013-05-31 12:53:00,
2013-05-31 07:58:00,65.7,64.5,29.77,SE,144,18.4,18.4,96,0.00,BKN,,0.00,32.0,WeatherDisplay:10.37,2013-05-31 12:58:00,
2013-05-31 08:03:00,65.9,64.7,29.78,South,184,15.0,15.0,96,0.00,BKN,,0.00,125.0,WeatherDisplay:10.37,2013-05-31 13:03:00,
2013-05-31 08:08:00,66.0,64.8,29.78,SSW,195,11.5,11.5,96,0.00,BKN,,0.00,244.0,WeatherDisplay:10.37,2013-05-31 13:08:00,
2013-05-31 08:13:00,66.3,65.1,29.77,SSW,209,13.8,13.8,96,0.00,BKN,,0.00,185.0,WeatherDisplay:10.37,2013-05-31 13:13:00,
2013-05-31 08:18:00,66.5,65.0,29.77,SSE,155,11.5,11.5,95,0.00,BKN,,0.00,330.0,WeatherDisplay:10.37,2013-05-31 13:18:00,
2013-05-31 08:23:00,66.8,65.3,29.78,SE,146,10.4,10.4,95,0.00,BKN,,0.00,369.0,WeatherDisplay:10.37,2013-05-31 13:23:00,
2013-05-31 08:28:00,67.2,65.7,29.77,SSW,192,11.5,11.5,95,0.00,SCT,,0.00,287.0,WeatherDisplay:10.37,2013-05-31 13:28:00,
2013-05-31 08:33:00,67.5,65.7,29.77,South,171,12.7,12.7,94,0.00,SCT,,0.00,350.0,WeatherDisplay:10.37,2013-05-31 13:33:00,
2013-05-31 08:38:00,67.8,66.0,29.78,South,186,12.7,12.7,94,0.00,BKN,,0.00,250.0,WeatherDisplay:10.37,2013-05-31 13:38:00,
2013-05-31 08:43:00,67.9,65.8,29.78,South,188,13.8,13.8,93,0.00,BKN,,0.00,211.0,WeatherDisplay:10.37,2013-05-31 13:43:00,
2013-05-31 08:48:00,68.0,65.9,29.78,SSW,194,13.8,13.8,93,0.00,BKN,,0.00,374.0,WeatherDisplay:10.37,2013-05-31 13:48:00,
2013-05-31 08:53:00,68.2,66.1,29.78,SSW,202,8.1,8.1,93,0.00,BKN,,0.00,214.0,WeatherDisplay:10.37,2013-05-31 13:53:00,
2013-05-31 08:58:00,68.5,66.1,29.78,SSE,162,4.6,4.6,92,0.00,BKN,,0.00,165.0,WeatherDisplay:10.37,2013-05-31 13:58:00,
2013-05-31 09:03:00,68.5,66.1,29.78,ESE,111,12.0,12.0,92,0.00,BKN,,0.00,171.0,WeatherDisplay:10.37,2013-05-31 14:03:00,
2013-05-31 09:08:00,68.6,66.2,29.78,SSE,160,13.8,13.8,92,0.00,BKN,,0.00,213.0,WeatherDisplay:10.37,2013-05-31 14:08:00,
2013-05-31 09:13:00,68.7,66.0,29.78,SSW,197,15.0,15.0,91,0.00,BKN,,0.00,193.0,WeatherDisplay:10.37,2013-05-31 14:13:00,
2013-05-31 09:18:00,68.7,66.0,29.77,South,181,11.5,11.5,91,0.00,BKN,,0.00,165.0,WeatherDisplay:10.37,2013-05-31 14:18:00,
2013-05-31 09:23:00,68.7,66.0,29.77,SE,144,11.5,11.5,91,0.00,BKN,,0.00,144.0,WeatherDisplay:10.37,2013-05-31 14:23:00,
2013-05-31 09:28:00,68.8,65.7,29.78,SSW,202,10.4,10.4,90,0.00,BKN,,0.00,123.0,WeatherDisplay:10.37,2013-05-31 14:28:00,
2013-05-31 09:33:00,68.8,65.7,29.78,SE,145,13.8,13.8,90,0.00,BKN,,0.00,105.0,WeatherDisplay:10.37,2013-05-31 14:33:00,
2013-05-31 09:38:00,68.8,65.7,29.78,SSW,192,13.8,13.8,90,0.00,BKN,,0.00,90.0,WeatherDisplay:10.37,2013-05-31 14:38:00,
2013-05-31 09:43:00,68.7,65.6,29.79,SSW,210,10.4,10.4,90,0.00,BKN,,0.00,76.0,WeatherDisplay:10.37,2013-05-31 14:43:00,
2013-05-31 09:48:00,68.7,65.6,29.79,South,191,16.1,16.1,90,0.00,BKN,,0.00,63.0,WeatherDisplay:10.37,2013-05-31 14:48:00,
2013-05-31 09:53:00,68.6,65.5,29.78,SW,218,11.5,11.5,90,0.00,BKN,,0.00,54.0,WeatherDisplay:10.37,2013-05-31 14:53:00,
2013-05-31 09:58:00,68.5,65.4,29.78,SSW,205,15.0,15.0,90,0.00,BKN,,0.00,49.0,WeatherDisplay:10.37,2013-05-31 14:58:00,
2013-05-31 10:03:00,68.4,65.4,29.78,SSE,155,12.7,12.7,90,0.00,OVC,,0.00,46.0,WeatherDisplay:10.37,2013-05-31 15:03:00,
2013-05-31 10:08:00,68.3,65.3,29.78,SSW,213,6.9,6.9,90,0.00,OVC,,0.00,46.0,WeatherDisplay:10.37,2013-05-31 15:08:00,
2013-05-31 10:13:00,68.2,65.2,29.77,SSW,204,11.5,11.5,90,0.00,OVC,,0.00,46.0,WeatherDisplay:10.37,2013-05-31 15:13:00,
2013-05-31 10:18:00,68.1,65.1,29.77,SSW,205,13.8,13.8,90,0.00,OVC,,0.00,49.0,WeatherDisplay:10.37,2013-05-31 15:18:00,
2013-05-31 10:23:00,68.0,64.6,29.77,SSW,213,11.5,11.5,89,0.00,OVC,,0.00,51.0,WeatherDisplay:10.37,2013-05-31 15:23:00,
2013-05-31 10:28:00,67.9,64.5,29.77,South,184,11.5,11.5,89,0.01,RA,,0.01,56.0,WeatherDisplay:10.37,2013-05-31 15:28:00,
2013-05-31 10:33:00,67.8,64.8,29.76,SSW,205,13.8,13.8,90,0.01,RA,,0.01,58.0,WeatherDisplay:10.37,2013-05-31 15:33:00,
2013-05-31 10:38:00,67.5,64.1,29.77,SSW,195,15.0,15.0,89,0.02,RA,,0.02,65.0,WeatherDisplay:10.37,2013-05-31 15:38:00,
2013-05-31 10:43:00,67.2,63.5,29.76,SSW,202,19.6,19.6,88,0.02,RA,,0.02,79.0,WeatherDisplay:10.37,2013-05-31 15:43:00,
2013-05-31 10:48:00,67.0,63.0,29.77,SSW,211,21.9,21.9,87,0.03,RA,,0.03,86.0,WeatherDisplay:10.37,2013-05-31 15:48:00,
2013-05-31 10:53:00,66.7,62.4,29.77,South,178,12.7,12.7,86,0.03,RA,,0.03,79.0,WeatherDisplay:10.37,2013-05-31 15:53:00,
2013-05-31 10:58:00,66.4,62.1,29.78,WSW,257,19.6,19.6,86,0.03,BKN,,0.03,74.0,WeatherDisplay:10.37,2013-05-31 15:58:00,
2013-05-31 11:03:00,66.2,61.9,29.78,SSW,212,9.2,9.2,86,0.04,RA,,0.04,88.0,WeatherDisplay:10.37,2013-05-31 16:03:00,
2013-05-31 11:08:00,65.9,61.6,29.78,South,186,11.5,11.5,86,0.04,RA,,0.04,90.0,WeatherDisplay:10.37,2013-05-31 16:08:00,
2013-05-31 11:13:00,65.7,61.4,29.75,South,176,16.1,16.1,86,0.04,BKN,,0.04,186.0,WeatherDisplay:10.37,2013-05-31 16:13:00,
2013-05-31 11:18:00,65.7,61.4,29.75,South,174,17.3,17.3,86,0.05,RA,,0.05,237.0,WeatherDisplay:10.37,2013-05-31 16:18:00,
2013-05-31 11:23:00,65.7,61.1,29.76,SSE,150,26.5,26.5,85,0.05,RA,,0.05,200.0,WeatherDisplay:10.37,2013-05-31 16:23:00,
2013-05-31 11:28:00,65.7,61.1,29.73,SSE,158,16.1,16.1,85,0.04,BKN,,0.05,185.0,WeatherDisplay:10.37,2013-05-31 16:28:00,
2013-05-31 11:33:00,65.7,60.4,29.72,SSE,151,13.8,13.8,83,0.04,BKN,,0.05,190.0,WeatherDisplay:10.37,2013-05-31 16:33:00,
2013-05-31 11:38:00,65.8,60.5,29.71,SSE,161,12.0,12.0,83,0.03,BKN,,0.05,230.0,WeatherDisplay:10.37,2013-05-31 16:38:00,
2013-05-31 11:44:00,66.3,59.9,29.70,ESE,115,28.8,28.8,80,0.03,BKN,,0.05,243.0,WeatherDisplay:10.37,2013-05-31 16:44:00,
2013-05-31 11:49:00,67.0,59.9,29.67,SSE,161,25.3,25.3,78,0.02,BKN,,0.05,253.0,WeatherDisplay:10.37,2013-05-31 16:49:00,
2013-05-31 11:54:00,67.7,60.2,29.68,SE,130,26.5,26.5,77,0.02,BKN,,0.05,376.0,WeatherDisplay:10.37,2013-05-31 16:54:00,
2013-05-31 11:59:00,68.2,60.3,29.70,SE,136,11.5,11.5,76,0.02,BKN,,0.05,388.0,WeatherDisplay:10.37,2013-05-31 16:59:00,
2013-05-31 12:04:00,68.9,61.0,29.72,SSW,207,18.4,18.4,76,0.01,BKN,,0.05,529.0,WeatherDisplay:10.37,2013-05-31 17:04:00,
2013-05-31 12:09:00,69.6,61.7,29.73,South,171,10.4,10.4,76,0.01,BKN,,0.05,686.0,WeatherDisplay:10.37,2013-05-31 17:09:00,
2013-05-31 12:14:00,70.3,60.8,29.74,SE,137,10.4,10.4,72,0.01,SCT,,0.05,413.0,WeatherDisplay:10.37,2013-05-31 17:14:00,
2013-05-31 12:19:00,70.6,61.5,29.73,SSE,165,6.9,6.9,73,0.00,BKN,,0.05,339.0,WeatherDisplay:10.37,2013-05-31 17:19:00,
2013-05-31 12:24:00,70.7,62.0,29.74,South,171,9.2,9.2,74,0.00,BKN,,0.05,510.0,WeatherDisplay:10.37,2013-05-31 17:24:00,
2013-05-31 12:29:00,70.9,62.2,29.74,SW,215,8.1,8.1,74,0.00,BKN,,0.05,679.0,WeatherDisplay:10.37,2013-05-31 17:29:00,
2013-05-31 12:34:00,71.3,61.8,29.74,South,173,8.1,8.1,72,0.00,BKN,,0.05,424.0,WeatherDisplay:10.37,2013-05-31 17:34:00,
2013-05-31 12:39:00,71.3,61.8,29.73,SE,142,10.4,10.4,72,0.00,BKN,,0.05,279.0,WeatherDisplay:10.37,2013-05-31 17:39:00,
2013-05-31 12:44:00,71.3,62.2,29.74,South,176,0.0,0.0,73,0.00,BKN,,0.05,248.0,WeatherDisplay:10.37,2013-05-31 17:44:00,
2013-05-31 12:49:00,71.1,62.4,29.75,SSE,159,11.5,11.5,74,0.00,BKN,,0.05,237.0,WeatherDisplay:10.37,2013-05-31 17:49:00,
2013-05-31 12:54:00,71.0,62.3,29.76,South,180,8.1,8.1,74,0.00,BKN,,0.05,269.0,WeatherDisplay:10.37,2013-05-31 17:54:00,
2013-05-31 12:59:00,70.9,62.6,29.76,South,171,3.5,3.5,75,0.00,BKN,,0.05,236.0,WeatherDisplay:10.37,2013-05-31 17:59:00,
2013-05-31 13:04:00,70.9,62.2,29.75,South,188,8.1,8.1,74,0.00,BKN,,0.05,230.0,WeatherDisplay:10.37,2013-05-31 18:04:00,
2013-05-31 13:09:00,71.1,62.8,29.75,South,171,9.2,9.2,75,0.00,BKN,,0.05,276.0,WeatherDisplay:10.37,2013-05-31 18:09:00,
2013-05-31 13:14:00,71.3,62.6,29.75,South,187,18.4,18.4,74,0.00,BKN,,0.05,237.0,WeatherDisplay:10.37,2013-05-31 18:14:00,
2013-05-31 13:19:00,71.7,63.0,29.75,SSW,192,15.0,15.0,74,0.00,BKN,,0.05,216.0,WeatherDisplay:10.37,2013-05-31 18:19:00,
2013-05-31 13:24:00,71.8,63.1,29.75,SSE,156,11.5,11.5,74,0.00,BKN,,0.05,199.0,WeatherDisplay:10.37,2013-05-31 18:24:00,
2013-05-31 13:29:00,71.8,62.7,29.75,South,187,25.3,25.3,73,0.00,BKN,,0.05,197.0,WeatherDisplay:10.37,2013-05-31 18:29:00,
2013-05-31 13:34:00,71.8,63.1,29.75,South,186,13.8,13.8,74,0.00,BKN,,0.05,197.0,WeatherDisplay:10.37,2013-05-31 18:34:00,
2013-05-31 13:39:00,71.6,63.3,29.75,SSW,209,21.0,21.0,75,0.00,BKN,,0.05,160.0,WeatherDisplay:10.37,2013-05-31 18:39:00,
2013-05-31 13:44:00,71.3,63.3,29.75,South,169,20.7,20.7,76,0.00,BKN,,0.05,207.0,WeatherDisplay:10.37,2013-05-31 18:44:00,
2013-05-31 13:49:00,71.2,63.2,29.75,South,190,26.5,26.5,76,0.00,BKN,,0.05,209.0,WeatherDisplay:10.37,2013-05-31 18:49:00,
2013-05-31 13:54:00,71.1,63.1,29.75,SSE,164,33.4,33.4,76,0.00,BKN,,0.05,225.0,WeatherDisplay:10.37,2013-05-31 18:54:00,
2013-05-31 13:59:00,70.7,63.9,29.75,SSE,162,24.2,24.2,79,0.00,BKN,,0.05,343.0,WeatherDisplay:10.37,2013-05-31 18:59:00,
2013-05-31 14:04:00,70.3,63.8,29.75,SSE,161,26.5,26.5,80,0.00,BKN,,0.05,320.0,WeatherDisplay:10.37,2013-05-31 19:04:00,
2013-05-31 14:09:00,70.3,64.2,29.75,SSE,166,19.6,19.6,81,0.00,BKN,,0.05,346.0,WeatherDisplay:10.37,2013-05-31 19:09:00,
2013-05-31 14:14:00,70.2,63.7,29.75,SE,145,17.3,17.3,80,0.00,BKN,,0.05,301.0,WeatherDisplay:10.37,2013-05-31 19:14:00,
2013-05-31 14:19:00,70.0,63.5,29.75,SE,144,21.9,21.9,80,0.00,BKN,,0.05,373.0,WeatherDisplay:10.37,2013-05-31 19:19:00,
2013-05-31 14:24:00,69.9,63.8,29.73,SSE,159,21.9,21.9,81,0.00,BKN,,0.05,362.0,WeatherDisplay:10.37,2013-05-31 19:24:00,
2013-05-31 14:29:00,69.9,64.2,29.73,SSE,156,18.4,18.4,82,0.00,BKN,,0.05,374.0,WeatherDisplay:10.37,2013-05-31 19:29:00,
2013-05-31 14:34:00,70.0,64.2,29.73,SE,128,19.6,19.6,82,0.00,BKN,,0.05,299.0,WeatherDisplay:10.37,2013-05-31 19:34:00,
2013-05-31 14:39:00,70.0,64.2,29.72,SE,146,18.4,18.4,82,0.00,BKN,,0.05,246.0,WeatherDisplay:10.37,2013-05-31 19:39:00,
2013-05-31 14:44:00,70.0,63.9,29.68,ENE,67,24.2,24.2,81,0.00,BKN,,0.05,295.0,WeatherDisplay:10.37,2013-05-31 19:44:00,
2013-05-31 14:49:00,70.1,64.0,29.68,SE,133,20.7,20.7,81,0.00,BKN,,0.05,504.0,WeatherDisplay:10.37,2013-05-31 19:49:00,
2013-05-31 14:54:00,70.5,64.4,29.69,SE,133,25.3,25.3,81,0.00,BKN,,0.05,714.0,WeatherDisplay:10.37,2013-05-31 19:54:00,
2013-05-31 14:59:00,71.5,65.0,29.69,SE,141,19.6,19.6,80,0.00,FEW,,0.05,1011.0,WeatherDisplay:10.37,2013-05-31 19:59:00,
2013-05-31 15:04:00,72.2,65.7,29.70,SE,139,16.1,16.1,80,0.00,CLR,,0.05,925.0,WeatherDisplay:10.37,2013-05-31 20:04:00,
2013-05-31 15:09:00,72.8,65.9,29.70,SE,127,20.7,20.7,79,0.00,CLR,,0.05,907.0,WeatherDisplay:10.37,2013-05-31 20:09:00,
2013-05-31 15:14:00,73.3,66.4,29.71,SE,140,11.5,11.5,79,0.00,CLR,,0.05,905.0,WeatherDisplay:10.37,2013-05-31 20:14:00,
2013-05-31 15:19:00,73.4,66.1,29.71,SSE,155,19.6,19.6,78,0.00,CLR,,0.05,935.0,WeatherDisplay:10.37,2013-05-31 20:19:00,
2013-05-31 15:24:00,73.8,67.2,29.71,SSE,159,12.7,12.7,80,0.00,CLR,,0.05,1023.0,WeatherDisplay:10.37,2013-05-31 20:24:00,
2013-05-31 15:29:00,74.1,67.2,29.71,SE,142,20.7,20.7,79,0.00,CLR,,0.05,997.0,WeatherDisplay:10.37,2013-05-31 20:29:00,
2013-05-31 15:34:00,74.7,68.1,29.71,South,171,16.1,16.1,80,0.00,CLR,,0.05,933.0,WeatherDisplay:10.37,2013-05-31 20:34:00,
2013-05-31 15:39:00,74.9,66.8,29.71,South,187,13.8,13.8,76,0.00,CLR,,0.05,949.0,WeatherDisplay:10.37,2013-05-31 20:39:00,
2013-05-31 15:44:00,74.7,67.0,29.72,South,186,16.1,16.1,77,0.00,CLR,,0.05,802.0,WeatherDisplay:10.37,2013-05-31 20:44:00,
2013-05-31 15:49:00,74.8,67.8,29.72,SSE,167,5.8,5.8,79,0.00,CLR,,0.05,772.0,WeatherDisplay:10.37,2013-05-31 20:49:00,
2013-05-31 15:54:00,75.0,67.7,29.72,SSE,150,13.8,13.8,78,0.00,FEW,,0.05,780.0,WeatherDisplay:10.37,2013-05-31 20:54:00,
2013-05-31 15:59:00,74.7,67.0,29.72,SSE,165,19.6,19.6,77,0.00,FEW,,0.05,670.0,WeatherDisplay:10.37,2013-05-31 20:59:00,
2013-05-31 16:04:00,74.1,66.8,29.72,SSW,194,11.5,11.5,78,0.00,SCT,,0.05,654.0,WeatherDisplay:10.37,2013-05-31 21:04:00,
2013-05-31 16:09:00,73.7,66.8,29.72,South,182,15.0,15.0,79,0.00,SCT,,0.05,650.0,WeatherDisplay:10.37,2013-05-31 21:09:00,
2013-05-31 16:14:00,73.4,67.2,29.72,South,174,15.0,15.0,81,0.00,SCT,,0.05,603.0,WeatherDisplay:10.37,2013-05-31 21:14:00,
2013-05-31 16:19:00,73.8,68.0,29.72,SSE,159,12.7,12.7,82,0.00,FEW,,0.05,742.0,WeatherDisplay:10.37,2013-05-31 21:19:00,
2013-05-31 16:24:00,74.2,68.0,29.71,South,169,6.9,6.9,81,0.00,FEW,,0.05,700.0,WeatherDisplay:10.37,2013-05-31 21:24:00,
2013-05-31 16:29:00,74.7,68.5,29.71,SE,136,19.6,19.6,81,0.00,FEW,,0.05,707.0,WeatherDisplay:10.37,2013-05-31 21:29:00,
2013-05-31 16:34:00,75.2,69.0,29.71,South,180,12.7,12.7,81,0.00,CLR,,0.05,809.0,WeatherDisplay:10.37,2013-05-31 21:34:00,
2013-05-31 16:39:00,75.4,68.4,29.71,South,169,11.5,11.5,79,0.00,CLR,,0.05,768.0,WeatherDisplay:10.37,2013-05-31 21:39:00,
2013-05-31 16:44:00,75.1,68.5,29.71,SSE,160,16.1,16.1,80,0.00,CLR,,0.05,657.0,WeatherDisplay:10.37,2013-05-31 21:44:00,
2013-05-31 16:49:00,75.2,68.2,29.71,SSW,196,13.8,13.8,79,0.00,CLR,,0.05,218.0,WeatherDisplay:10.37,2013-05-31 21:49:00,
2013-05-31 16:54:00,74.6,68.0,29.70,SSE,152,11.5,11.5,80,0.00,SCT,,0.05,132.0,WeatherDisplay:10.37,2013-05-31 21:54:00,
2013-05-31 16:59:00,74.0,67.8,29.71,South,186,10.4,10.4,81,0.00,BKN,,0.05,192.0,WeatherDisplay:10.37,2013-05-31 21:59:00,
2013-05-31 17:04:00,73.7,67.9,29.71,SSE,148,12.7,12.7,82,0.00,BKN,,0.05,195.0,WeatherDisplay:10.37,2013-05-31 22:04:00,
2013-05-31 17:09:00,73.8,68.3,29.70,South,191,5.0,5.0,83,0.00,BKN,,0.05,367.0,WeatherDisplay:10.37,2013-05-31 22:09:00,
2013-05-31 17:14:00,74.1,69.0,29.70,SSE,157,13.8,13.8,84,0.00,BKN,,0.05,640.0,WeatherDisplay:10.37,2013-05-31 22:14:00,
2013-05-31 17:19:00,74.8,69.6,29.69,SSE,163,11.0,11.0,84,0.00,FEW,,0.05,714.0,WeatherDisplay:10.37,2013-05-31 22:19:00,
2013-05-31 17:24:00,75.3,69.1,29.69,South,191,12.7,12.7,81,0.00,CLR,,0.05,638.0,WeatherDisplay:10.37,2013-05-31 22:24:00,
2013-05-31 17:30:00,75.6,69.4,29.68,SSW,194,6.9,0.0,81,0.00,CLR,,0.05,206.0,WeatherDisplay:10.37,2013-05-31 22:30:00,
2013-05-31 17:35:00,75.5,69.3,29.68,South,174,6.9,6.9,81,0.00,SCT,,0.05,285.0,WeatherDisplay:10.37,2013-05-31 22:35:00,
2013-05-31 17:40:00,75.5,69.3,29.68,South,191,8.1,8.1,81,0.00,BKN,,0.05,301.0,WeatherDisplay:10.37,2013-05-31 22:40:00,
2013-05-31 17:45:00,75.4,69.5,29.68,South,175,12.7,12.7,82,0.00,SCT,,0.05,550.0,WeatherDisplay:10.37,2013-05-31 22:45:00,
2013-05-31 17:50:00,75.3,69.4,29.68,SW,215,0.0,3.0,82,0.00,CLR,,0.05,550.0,WeatherDisplay:10.37,2013-05-31 22:50:00,
2013-05-31 17:55:00,75.3,69.4,29.68,SSW,200,9.0,9.0,82,0.00,FEW,,0.05,171.0,WeatherDisplay:10.37,2013-05-31 22:55:00,
2013-05-31 18:00:00,75.2,69.3,29.68,South,170,0.0,0.0,82,0.00,SCT,,0.05,200.0,WeatherDisplay:10.37,2013-05-31 23:00:00,
2013-05-31 18:05:00,74.8,68.9,29.68,South,178,11.5,11.5,82,0.00,BKN,,0.05,192.0,WeatherDisplay:10.37,2013-05-31 23:05:00,
2013-05-31 18:10:00,74.7,68.8,29.68,South,182,6.9,6.9,82,0.00,BKN,,0.05,334.0,WeatherDisplay:10.37,2013-05-31 23:10:00,
2013-05-31 18:15:00,74.7,68.5,29.68,SSW,202,6.9,6.9,81,0.00,BKN,,0.05,244.0,WeatherDisplay:10.37,2013-05-31 23:15:00,
2013-05-31 18:20:00,74.6,68.4,29.68,SSW,192,12.7,12.7,81,0.00,BKN,,0.05,118.0,WeatherDisplay:10.37,2013-05-31 23:20:00,
2013-05-31 18:25:00,74.3,68.1,29.68,SSW,209,12.7,12.7,81,0.00,BKN,,0.05,95.0,WeatherDisplay:10.37,2013-05-31 23:25:00,
2013-05-31 18:30:00,74.1,68.3,29.68,SSW,202,0.0,0.0,82,0.00,BKN,,0.05,86.0,WeatherDisplay:10.37,2013-05-31 23:30:00,
2013-05-31 18:35:00,73.9,68.4,29.68,South,171,0.0,0.0,83,0.00,BKN,,0.05,123.0,WeatherDisplay:10.37,2013-05-31 23:35:00,
2013-05-31 18:40:00,73.9,68.4,29.68,South,186,0.0,0.0,83,0.00,BKN,,0.05,146.0,WeatherDisplay:10.37,2013-05-31 23:40:00,
2013-05-31 18:45:00,73.9,68.8,29.69,SSE,165,1.2,1.2,84,0.00,BKN,,0.05,142.0,WeatherDisplay:10.37,2013-05-31 23:45:00,
2013-05-31 18:50:00,73.8,68.3,29.68,South,174,11.5,11.5,83,0.00,BKN,,0.05,169.0,WeatherDisplay:10.37,2013-05-31 23:50:00,
2013-05-31 18:55:00,73.8,68.3,29.69,SSW,203,9.2,9.2,83,0.00,BKN,,0.05,156.0,WeatherDisplay:10.37,2013-05-31 23:55:00,
2013-05-31 19:00:00,73.8,68.3,29.68,South,184,3.5,3.5,83,0.00,BKN,,0.05,141.0,WeatherDisplay:10.37,2013-06-01 00:00:00,
2013-05-31 19:05:00,73.9,68.4,29.68,South,183,11.5,11.5,83,0.00,BKN,,0.05,135.0,WeatherDisplay:10.37,2013-06-01 00:05:00,
2013-05-31 19:10:00,73.8,68.0,29.68,South,190,12.7,12.7,82,0.00,BKN,,0.05,134.0,WeatherDisplay:10.37,2013-06-01 00:10:00,
2013-05-31 19:15:00,73.7,68.2,29.68,South,190,6.9,0.0,83,0.00,BKN,,0.05,137.0,WeatherDisplay:10.37,2013-06-01 00:15:00,
2013-05-31 19:20:00,73.7,68.2,29.67,SSE,162,3.5,0.0,83,0.00,SCT,,0.05,127.0,WeatherDisplay:10.37,2013-06-01 00:20:00,
2013-05-31 19:25:00,73.8,68.3,29.67,South,182,4.6,0.0,83,0.00,BKN,,0.05,105.0,WeatherDisplay:10.37,2013-06-01 00:25:00,
2013-05-31 19:30:00,73.8,68.3,29.67,South,182,0.0,0.0,83,0.00,BKN,,0.05,69.0,WeatherDisplay:10.37,2013-06-01 00:30:00,
2013-05-31 19:35:00,73.7,68.6,29.68,South,190,0.0,0.0,84,0.00,BKN,,0.05,49.0,WeatherDisplay:10.37,2013-06-01 00:35:00,
2013-05-31 19:40:00,73.5,68.4,29.68,South,186,0.0,0.3,84,0.00,BKN,,0.05,54.0,WeatherDisplay:10.37,2013-06-01 00:40:00,
2013-05-31 19:45:00,73.3,68.2,29.68,SSE,165,4.0,4.0,84,0.00,BKN,,0.05,42.0,WeatherDisplay:10.37,2013-06-01 00:45:00,
2013-05-31 19:50:00,73.1,68.3,29.67,SSE,168,1.2,0.0,85,0.00,BKN,,0.05,35.0,WeatherDisplay:10.37,2013-06-01 00:50:00,
2013-05-31 19:55:00,73.0,68.2,29.68,SSE,161,0.0,0.0,85,0.00,BKN,,0.05,32.0,WeatherDisplay:10.37,2013-06-01 00:55:00,
2013-05-31 20:00:00,73.0,68.2,29.68,SSE,150,0.0,0.0,85,0.00,BKN,,0.05,28.0,WeatherDisplay:10.37,2013-06-01 01:00:00,
2013-05-31 20:05:00,72.9,68.5,29.67,SSE,159,0.0,0.0,86,0.00,BKN,,0.05,19.0,WeatherDisplay:10.37,2013-06-01 01:05:00,
2013-05-31 20:10:00,72.8,68.4,29.67,SSE,159,0.0,0.0,86,0.00,BKN,,0.05,9.0,WeatherDisplay:10.37,2013-06-01 01:10:00,
2013-05-31 20:15:00,72.7,68.6,29.67,South,178,0.0,1.8,87,0.00,BKN,,0.05,5.0,WeatherDisplay:10.37,2013-06-01 01:15:00,
2013-05-31 20:20:00,72.6,68.5,29.67,SSE,155,0.0,0.0,87,0.00,BKN,,0.05,5.0,WeatherDisplay:10.37,2013-06-01 01:20:00,
2013-05-31 20:25:00,72.5,68.4,29.66,SSE,159,0.0,0.0,87,0.00,SCT,,0.05,7.0,WeatherDisplay:10.37,2013-06-01 01:25:00,
2013-05-31 20:31:00,72.3,68.5,29.67,SSE,160,1.2,1.2,88,0.00,SCT,,0.05,0.0,WeatherDisplay:10.37,2013-06-01 01:31:00,
2013-05-31 20:36:00,72.2,68.4,29.67,SSE,160,0.0,0.0,88,0.00,SCT,,0.05,0.0,WeatherDisplay:10.37,2013-06-01 01:36:00,
2013-05-31 20:41:00,72.1,68.3,29.67,South,171,4.6,4.6,88,0.00,SCT,,0.05,0.0,WeatherDisplay:10.37,2013-06-01 01:41:00,
2013-05-31 20:46:00,72.0,68.6,29.67,SSE,168,5.8,5.8,89,0.00,SCT,,0.05,0.0,WeatherDisplay:10.37,2013-06-01 01:46:00,
2013-05-31 20:51:00,71.9,68.5,29.67,SSE,162,3.5,3.5,89,0.00,SCT,,0.05,0.0,WeatherDisplay:10.37,2013-06-01 01:51:00,
2013-05-31 20:56:00,71.8,68.4,29.67,South,169,0.0,0.0,89,0.00,SCT,,0.05,0.0,WeatherDisplay:10.37,2013-06-01 01:56:00,
2013-05-31 21:01:00,71.7,68.3,29.68,SSE,168,0.0,0.0,89,0.00,SCT,,0.05,0.0,WeatherDisplay:10.37,2013-06-01 02:01:00,
2013-05-31 21:06:00,71.7,68.6,29.67,SSE,165,0.0,0.0,90,0.00,SCT,,0.05,0.0,WeatherDisplay:10.37,2013-06-01 02:06:00,
2013-05-31 21:11:00,71.6,68.5,29.67,SSE,167,0.0,0.0,90,0.00,SCT,,0.05,0.0,WeatherDisplay:10.37,2013-06-01 02:11:00,
2013-05-31 21:16:00,71.5,68.4,29.67,South,180,0.0,1.9,90,0.00,SCT,,0.05,0.0,WeatherDisplay:10.37,2013-06-01 02:16:00,
2013-05-31 21:21:00,71.5,68.7,29.67,South,173,1.2,1.2,91,0.00,SCT,,0.05,0.0,WeatherDisplay:10.37,2013-06-01 02:21:00,
2013-05-31 21:26:00,71.5,68.7,29.68,SSE,158,0.0,0.0,91,0.00,SCT,,0.05,0.0,WeatherDisplay:10.37,2013-06-01 02:26:00,
2013-05-31 21:31:00,71.5,68.7,29.67,SSE,159,5.8,5.8,91,0.00,SCT,,0.05,0.0,WeatherDisplay:10.37,2013-06-01 02:31:00,
2013-05-31 21:36:00,71.5,69.1,29.67,SSE,162,5.8,5.8,92,0.00,SCT,,0.05,0.0,WeatherDisplay:10.37,2013-06-01 02:36:00,
2013-05-31 21:41:00,71.5,69.1,29.67,South,173,0.0,0.0,92,0.00,SCT,,0.05,0.0,WeatherDisplay:10.37,2013-06-01 02:41:00,
2013-05-31 21:46:00,71.5,69.1,29.67,South,179,0.0,0.0,92,0.00,SCT,,0.05,0.0,WeatherDisplay:10.37,2013-06-01 02:46:00,
2013-05-31 21:51:00,71.5,69.1,29.68,South,179,4.6,4.6,92,0.00,SCT,,0.05,0.0,WeatherDisplay:10.37,2013-06-01 02:51:00,
2013-05-31 21:56:00,71.5,69.1,29.67,SSE,160,0.0,0.5,92,0.00,SCT,,0.05,0.0,WeatherDisplay:10.37,2013-06-01 02:56:00,
2013-05-31 22:01:00,71.5,69.1,29.67,SSE,167,5.8,5.8,92,0.00,SCT,,0.05,0.0,WeatherDisplay:10.37,2013-06-01 03:01:00,
2013-05-31 22:06:00,71.4,69.0,29.68,SSE,167,0.0,0.0,92,0.00,SCT,,0.05,0.0,WeatherDisplay:10.37,2013-06-01 03:06:00,
2013-05-31 22:11:00,71.4,69.0,29.68,SSE,165,0.0,0.0,92,0.00,SCT,,0.05,0.0,WeatherDisplay:10.37,2013-06-01 03:11:00,
2013-05-31 22:16:00,71.3,69.2,29.68,South,169,0.0,0.0,93,0.00,SCT,,0.05,0.0,WeatherDisplay:10.37,2013-06-01 03:16:00,
2013-05-31 22:21:00,71.3,68.9,29.69,South,171,0.0,0.0,92,0.00,SCT,,0.05,0.0,WeatherDisplay:10.37,2013-06-01 03:21:00,
2013-05-31 22:26:00,71.3,69.2,29.68,South,171,0.0,0.0,93,0.00,SCT,,0.05,0.0,WeatherDisplay:10.37,2013-06-01 03:26:00,
2013-05-31 22:31:00,71.2,69.1,29.67,South,171,0.0,0.0,93,0.00,SCT,,0.05,0.0,WeatherDisplay:10.37,2013-06-01 03:31:00,
2013-05-31 22:36:00,71.2,69.1,29.68,South,171,0.0,0.0,93,0.00,SCT,,0.05,0.0,WeatherDisplay:10.37,2013-06-01 03:36:00,
2013-05-31 22:41:00,71.1,69.0,29.67,South,171,0.0,0.0,93,0.00,SCT,,0.05,0.0,WeatherDisplay:10.37,2013-06-01 03:41:00,
2013-05-31 22:46:00,71.0,68.9,29.67,South,171,0.0,0.0,93,0.00,SCT,,0.05,0.0,WeatherDisplay:10.37,2013-06-01 03:46:00,
2013-05-31 22:51:00,71.0,68.9,29.66,South,171,1.2,0.0,93,0.00,SCT,,0.05,0.0,WeatherDisplay:10.37,2013-06-01 03:51:00,
2013-05-31 22:56:00,70.9,68.8,29.66,South,171,0.0,0.0,93,0.00,SCT,,0.05,0.0,WeatherDisplay:10.37,2013-06-01 03:56:00,
2013-05-31 23:01:00,70.8,68.7,29.65,SE,145,1.2,0.0,93,0.00,SCT,,0.05,0.0,WeatherDisplay:10.37,2013-06-01 04:01:00,
2013-05-31 23:06:00,70.6,68.5,29.63,SE,144,0.0,0.0,93,0.00,SCT,,0.05,0.0,WeatherDisplay:10.37,2013-06-01 04:06:00,
2013-05-31 23:11:00,70.4,68.3,29.64,SE,144,0.0,0.0,93,0.00,SCT,,0.05,0.0,WeatherDisplay:10.37,2013-06-01 04:11:00,
2013-05-31 23:16:00,70.3,68.2,29.64,SSE,167,5.8,5.8,93,0.00,SCT,,0.05,0.0,WeatherDisplay:10.37,2013-06-01 04:16:00,
2013-05-31 23:21:00,70.1,68.0,29.64,SSE,167,0.0,0.0,93,0.00,SCT,,0.05,0.0,WeatherDisplay:10.37,2013-06-01 04:21:00,
2013-05-31 23:26:00,70.0,67.9,29.65,South,182,4.6,4.6,93,0.00,SCT,,0.05,0.0,WeatherDisplay:10.37,2013-06-01 04:26:00,
2013-05-31 23:31:00,69.9,67.8,29.65,South,186,0.0,0.0,93,0.00,SCT,,0.05,0.0,WeatherDisplay:10.37,2013-06-01 04:31:00,
2013-05-31 23:36:00,69.8,67.7,29.65,SW,231,3.5,0.0,93,0.00,SCT,,0.05,0.0,WeatherDisplay:10.37,2013-06-01 04:36:00,
2013-05-31 23:41:00,69.7,67.6,29.64,SW,216,5.8,5.8,93,0.00,SCT,,0.05,0.0,WeatherDisplay:10.37,2013-06-01 04:41:00,
2013-05-31 23:46:00,69.7,67.6,29.65,SW,216,0.0,0.0,93,0.00,SCT,,0.05,0.0,WeatherDisplay:10.37,2013-06-01 04:46:00,
2013-05-31 23:51:00,69.6,67.5,29.65,SW,215,0.0,0.0,93,0.00,SCT,,0.05,0.0,WeatherDisplay:10.37,2013-06-01 04:51:00,
2013-05-31 23:56:00,69.5,67.4,29.65,SW,216,3.0,3.0,93,0.00,SCT,,0.05,0.0,WeatherDisplay:10.37,2013-06-01 04:56:00,